TimeCDT,TemperatureF,Dew PointF,Humidity,Sea Level PressureIn,VisibilityMPH,Wind Direction,Wind SpeedMPH,Gust SpeedMPH,PrecipitationIn,Events,Conditions,WindDirDegrees,DateUTC
12:15 AM,55.8,45.0,67,30.03,10.0,ESE,4.6,-,N/A,,Clear,120,2013-06-03 05:15:00
12:35 AM,55.2,45.0,68,30.03,10.0,ESE,4.6,-,N/A,,Clear,120,2013-06-03 05:35:00
12:55 AM,54.7,45.0,70,30.03,10.0,SE,4.6,-,N/A,,Clear,130,2013-06-03 05:55:00
1:15 AM,54.5,45.1,71,30.03,10.0,SE,3.5,-,N/A,,Clear,140,2013-06-03 06:15:00
1:35 AM,54.3,45.0,71,30.03,10.0,SE,4.6,-,N/A,,Clear,130,2013-06-03 06:35:00
1:55 AM,54.1,45.0,71,30.03,10.0,SE,4.6,-,N/A,,Clear,140,2013-06-03 06:55:00
2:15 AM,54.1,44.8,71,30.03,10.0,SSE,4.6,-,N/A,,Clear,150,2013-06-03 07:15:00
2:35 AM,53.8,45.0,72,30.02,10.0,SSE,5.8,-,N/A,,Clear,150,2013-06-03 07:35:00
2:55 AM,53.6,45.1,73,30.01,10.0,SSE,5.8,-,N/A,,Clear,150,2013-06-03 07:55:00
3:15 AM,52.9,45.3,75,30.01,10.0,SSE,5.8,-,N/A,,Clear,150,2013-06-03 08:15:00
3:35 AM,52.0,45.0,77,30.03,10.0,SSE,4.6,-,N/A,,Clear,160,2013-06-03 08:35:00
3:55 AM,51.4,45.1,79,30.03,10.0,SSE,5.8,-,N/A,,Clear,160,2013-06-03 08:55:00
4:15 AM,51.8,45.0,77,30.03,10.0,SSE,5.8,-,N/A,,Clear,160,2013-06-03 09:15:00
4:35 AM,50.7,45.3,82,30.04,10.0,SSE,5.8,-,N/A,,Clear,160,2013-06-03 09:35:00
4:55 AM,49.6,44.8,83,30.04,10.0,SSE,5.8,-,N/A,,Clear,160,2013-06-03 09:55:00
5:15 AM,49.5,45.1,85,30.04,10.0,SSE,4.6,-,N/A,,Clear,160,2013-06-03 10:15:00
5:35 AM,50.0,45.5,85,30.04,10.0,SSE,5.8,-,N/A,,Clear,150,2013-06-03 10:35:00
5:55 AM,49.5,45.3,86,30.05,10.0,SSE,5.8,-,N/A,,Clear,160,2013-06-03 10:55:00
6:15 AM,49.8,45.1,84,30.05,10.0,SSE,5.8,-,N/A,,Clear,150,2013-06-03 11:15:00
6:35 AM,51.1,45.5,81,30.04,10.0,SSE,5.8,-,N/A,,Clear,150,2013-06-03 11:35:00
6:55 AM,51.8,46.0,81,30.03,10.0,SSE,6.9,-,N/A,,Clear,150,2013-06-03 11:55:00
7:15 AM,52.9,46.6,79,30.03,10.0,SSE,5.8,-,N/A,,Clear,150,2013-06-03 12:15:00
7:35 AM,54.1,47.3,78,30.03,10.0,SSE,5.8,-,N/A,,Clear,150,2013-06-03 12:35:00
7:55 AM,55.4,47.7,75,30.03,10.0,SSE,6.9,-,N/A,,Clear,150,2013-06-03 12:55:00
8:15 AM,57.0,48.2,72,30.01,10.0,SSE,9.2,-,N/A,,Clear,150,2013-06-03 13:15:00
8:35 AM,58.3,47.7,68,30.01,10.0,SSE,12.7,-,N/A,,Clear,160,2013-06-03 13:35:00
8:55 AM,59.4,47.5,65,30.01,10.0,SSE,10.4,-,N/A,,Clear,150,2013-06-03 13:55:00
9:15 AM,60.8,47.8,62,30.01,10.0,SSE,12.7,-,N/A,,Clear,150,2013-06-03 14:15:00
9:35 AM,61.2,46.8,59,30.00,10.0,South,16.1,-,N/A,,Clear,170,2013-06-03 14:35:00
9:55 AM,62.1,46.6,57,30.00,10.0,SE,13.8,18.4,N/A,,Clear,140,2013-06-03 14:55:00
10:15 AM,62.2,46.6,57,29.99,10.0,SSE,15.0,-,N/A,,Clear,160,2013-06-03 15:15:00
10:35 AM,63.7,47.1,55,29.99,10.0,SSE,16.1,-,N/A,,Clear,160,2013-06-03 15:35:00
10:55 AM,64.2,47.1,54,29.99,10.0,SE,12.7,23.0,N/A,,Clear,140,2013-06-03 15:55:00
11:15 AM,64.8,47.8,54,29.98,10.0,SE,17.3,21.9,N/A,,Clear,140,2013-06-03 16:15:00
11:35 AM,64.8,48.0,55,29.98,10.0,SE,12.7,23.0,N/A,,Clear,140,2013-06-03 16:35:00
11:55 AM,66.7,48.0,51,29.98,10.0,SE,13.8,20.7,N/A,,Clear,140,2013-06-03 16:55:00
12:15 PM,67.3,47.8,50,29.96,10.0,ESE,15.0,-,N/A,,Clear,120,2013-06-03 17:15:00
12:35 PM,-9999,-9999,N/A,-9999,-9999.0,North,-9999.0,-,N/A,,Unknown,0,2013-06-03 17:35:00
12:55 PM,-9999,-9999,N/A,-9999,-9999.0,North,-9999.0,-,N/A,,Unknown,0,2013-06-03 17:55:00
1:15 PM,69.3,47.3,45,29.93,10.0,SE,15.0,21.9,N/A,,Clear,130,2013-06-03 18:15:00
1:35 PM,70.0,46.4,43,29.92,10.0,SSE,18.4,23.0,N/A,,Clear,150,2013-06-03 18:35:00
1:55 PM,70.5,46.4,42,29.91,10.0,SE,19.6,24.2,N/A,,Clear,140,2013-06-03 18:55:00
2:15 PM,71.1,45.0,39,29.91,10.0,SE,15.0,25.3,N/A,,Clear,130,2013-06-03 19:15:00
2:35 PM,72.0,46.4,40,29.90,10.0,SSE,16.1,25.3,N/A,,Clear,150,2013-06-03 19:35:00
2:55 PM,72.7,45.7,38,29.88,10.0,SSE,19.6,24.2,N/A,,Clear,150,2013-06-03 19:55:00
3:15 PM,73.0,44.2,36,29.88,10.0,SSE,17.3,23.0,N/A,,Clear,150,2013-06-03 20:15:00
3:35 PM,73.9,46.0,37,29.88,10.0,SE,18.4,21.9,N/A,,Clear,140,2013-06-03 20:35:00
3:55 PM,73.6,45.7,37,29.87,10.0,SE,15.0,21.9,N/A,,Clear,140,2013-06-03 20:55:00
4:15 PM,73.4,45.5,37,29.87,10.0,ESE,18.4,26.5,N/A,,Clear,120,2013-06-03 21:15:00
4:35 PM,74.3,45.1,35,29.85,10.0,SE,20.7,25.3,N/A,,Clear,140,2013-06-03 21:35:00
4:55 PM,75.2,45.3,34,29.84,10.0,SE,20.7,24.2,N/A,,Clear,140,2013-06-03 21:55:00
5:15 PM,75.0,44.1,33,29.85,10.0,SE,23.0,29.9,N/A,,Clear,140,2013-06-03 22:15:00
5:35 PM,74.7,44.2,34,29.85,10.0,SE,17.3,27.6,N/A,,Clear,140,2013-06-03 22:35:00
5:55 PM,74.5,45.0,35,29.84,10.0,SE,16.1,25.3,N/A,,Clear,140,2013-06-03 22:55:00
6:15 PM,74.3,45.3,36,29.85,10.0,SE,18.4,23.0,N/A,,Clear,140,2013-06-03 23:15:00
6:35 PM,73.9,44.8,35,29.84,10.0,SSE,16.1,23.0,N/A,,Clear,150,2013-06-03 23:35:00
6:55 PM,73.4,45.5,37,29.84,10.0,SE,17.3,26.5,N/A,,Clear,130,2013-06-03 23:55:00
7:15 PM,72.9,46.2,39,29.84,10.0,SE,18.4,23.0,N/A,,Clear,130,2013-06-04 00:15:00
7:35 PM,72.3,47.8,42,29.84,10.0,SE,15.0,-,N/A,,Clear,130,2013-06-04 00:35:00
7:55 PM,71.4,47.8,43,29.84,10.0,ESE,12.7,17.3,N/A,,Clear,120,2013-06-04 00:55:00
8:15 PM,70.3,48.4,46,29.85,10.0,SE,12.7,20.7,N/A,,Clear,130,2013-06-04 01:15:00
8:35 PM,69.3,49.1,49,29.86,10.0,SE,11.5,-,N/A,,Clear,130,2013-06-04 01:35:00
8:55 PM,68.5,49.8,51,29.88,10.0,SE,10.4,20.7,N/A,,Clear,130,2013-06-04 01:55:00
9:15 PM,68.0,50.2,53,29.87,10.0,SE,11.5,16.1,N/A,,Clear,130,2013-06-04 02:15:00
9:35 PM,67.1,50.9,56,29.87,10.0,SE,13.8,-,N/A,,Clear,130,2013-06-04 02:35:00
9:55 PM,67.1,51.1,56,29.88,10.0,SE,11.5,-,N/A,,Clear,130,2013-06-04 02:55:00
10:15 PM,65.8,51.8,60,29.88,10.0,ESE,12.7,19.6,N/A,,Clear,120,2013-06-04 03:15:00
10:35 PM,65.3,51.8,62,29.88,10.0,ESE,10.4,-,N/A,,Clear,120,2013-06-04 03:35:00
10:55 PM,64.9,52.2,63,29.88,10.0,ESE,12.7,16.1,N/A,,Clear,120,2013-06-04 03:55:00
11:15 PM,64.4,52.5,65,29.88,10.0,ESE,12.7,17.3,N/A,,Clear,120,2013-06-04 04:15:00
11:35 PM,63.9,52.7,67,29.89,10.0,SE,11.5,-,N/A,,Clear,130,2013-06-04 04:35:00
11:55 PM,64.4,52.7,66,29.90,10.0,SE,12.7,19.6,N/A,,Clear,130,2013-06-04 04:55:00